Temp
26 25 25 24 24 25 24 24 24 23 23 23 22 22 21 21 22 22 22 22 21 21 20 20 19 19 19 20 20 21 21 20 21 22 22 23 25 26 27 27 27 28
24 24 24 24 24 24 24 24 23 22 21 21 21 21 21 21 21 21 21 21 21 20 20 20 19 19 19 19 19 20 20 20 18 21 20 21 22 23 25 25 26 27
24 24 24 23 22 22 22 22 22 22 21 20 20 20 19 20 20 20 20 20 20 19 19 19 18 17 17 17 18 18 17 17 17 18 18 19 20 20 21 22 23 24
23 23 23 23 22 21 22 21 20 20 20 18 18 18 18 18 18 18 18 18 17 17 17 17 17 16 16 16 15 16 17 16 16 15 15 16 17 17 18 19 18 19
22 21 21 21 20 20 20 19 18 18 18 17 17 17 17 17 16 16 16 16 16 16 16 16 16 15 15 14 14 14 16 16 17 16 15 15 15 16 17 16 15 15
19 19 19 19 19 18 18 17 17 17 17 17 16 16 16 16 15 15 15 14 15 15 14 14 14 13 13 12 11 12 14 15 16 15 14 13 13 15 16 15 14 14
17 17 17 17 17 17 16 15 15 15 15 15 15 14 15 14 14 13 13 13 13 13 12 11 10 9 9 7 8 8 10 13 14 15 14 13 13 13 15 15 14 13
17 17 16 16 16 15 15 15 14 13 14 14 12 13 13 12 12 12 12 12 12 12 11 10 8 8 6 6 8 8 6 9 11 11 12 11 12 12 13 13 13 13
16 15 15 15 14 14 13 12 12 12 13 12 11 11 12 11 11 11 11 11 11 10 10 10 9 7 7 7 6 6 5 5 7 9 10 10 10 10 10 11 11 11
14 14 14 14 13 12 11 12 11 10 11 10 10 11 9 9 10 10 10 10 9 9 9 9 8 8 8 7 8 6 5 7 5 6 8 9 10 10 10 10 9 9
14 14 13 13 12 12 11 11 10 10 10 9 9 8 8 7 7 7 7 8 7 8 8 6 7 6 7 6 6 5 5 4 4 4 4 5 6 6 9 6 9 9
13 13 13 12 12 11 11 11 10 9 8 8 8 8 6 6 5 5 7 6 5 6 5 5 5 5 4 4 3 3 4 4 3 3 3 3 4 6 6 6 6 8
13 13 13 12 12 11 10 9 9 8 8 7 7 6 6 5 3 3 5 4 5 4 5 5 6 4 4 3 3 3 3 2 3 3 3 4 6 10 10 9 7 6
13 13 12 12 11 10 9 9 7 6 6 6 5 5 5 5 4 6 3 3 4 4 6 4 3 4 4 3 3 3 1 1 3 2 4 6 9 10 9 9 9 8
12 11 10 10 10 9 8 7 7 5 4 4 5 5 5 4 5 5 3 4 4 4 3 4 3 4 3 2 2 3 1 2 3 4 6 8 11 11 9 8 6 7
11 10 10 9 8 8 8 6 4 4 4 5 5 4 4 4 3 4 3 3 4 3 3 3 3 3 7 9 10 8 5 5 4 6 8 10 11 12 12 11 9 5
11 10 8 8 8 7 6 5 7 3 3 4 4 4 4 4 4 4 3 3 2 2 1 2 3 4 8 13 17 19 14 8 7 9 9 10 11 11 12 12 11 10
10 9 7 7 7 7 6 4 3 4 5 6 5 6 5 3 4 3 3 2 2 1 -0 1 1 6 10 14 16 18 17 13 9 10 11 11 11 11 11 11 11 11
9 8 8 7 7 6 5 4 3 6 5 5 5 4 3 4 4 4 2 2 1 0 -0 1 -0 5 9 13 15 17 18 16 12 12 12 11 11 10 9 10 10 10
9 9 9 9 8 7 7 6 6 5 5 4 4 5 4 3 2 3 3 -0 -0 -1 -1 -1 -1 4 8 11 14 16 17 17 13 12 11 10 9 9 9 9 9 7
10 10 9 8 8 7 6 5 5 4 5 4 3 4 2 0 1 -0 -0 0 -1 -2 -2 -1 -0 5 8 10 12 14 15 15 12 10 8 6 6 5 4 3 2 3
10 9 7 6 6 5 5 6 4 3 2 3 1 1 1 1 0 0 -1 -1 -0 -2 -2 -1 0 5 8 9 11 13 14 11 9 8 7 5 4 1 0 1 1 1
9 7 6 4 5 4 3 4 4 2 1 1 -3 1 1 -0 -2 -2 -2 -3 -2 -2 -2 -2 -2 3 6 8 9 12 11 6 6 5 3 1 0 -2 -0 -0 -0 -0
8 6 5 4 3 2 3 3 1 1 -0 -0 -1 -2 -2 -3 -3 -3 -3 -3 -3 -3 -2 -2 -1 2 5 6 8 10 10 4 2 -1 -3 -1 -1 -2 -1 -2 -1 4
6 5 4 2 2 1 -1 -1 -0 -2 -1 -1 -2 -4 -5 -4 -4 -4 -4 -4 -4 -3 1 0 -1 1 4 5 7 9 8 -0 -1 -5 -3 -3 -2 -2 -3 -1 -2 1
5 3 2 1 1 -3 -4 -4 -3 -4 -3 -4 -4 -5 -6 -7 -5 -6 -6 -6 -4 -4 -4 -3 -3 -2 -1 4 5 7 8 4 -4 -6 -4 -3 -3 -2 -1 -2 -1 -3
MSLP
1019.33 1019.65 1020.05 1020.37 1020.81 1021.13 1021.45 1021.81 1022.17 1022.37 1022.45 1022.41 1022.29 1022.37 1022.45 1022.53 1022.53 1022.53 1022.69 1022.85 1023.01 1023.17 1023.33 1023.45 1023.49 1023.53 1023.53 1023.49 1023.49 1023.45 1023.45 1023.53 1023.41 1023.37 1023.25 1023.05 1022.93 1022.77 1022.73 1022.73 1022.73 1022.69
1019.65 1019.97 1020.29 1020.61 1021.01 1021.37 1021.65 1021.93 1022.25 1022.41 1022.49 1022.45 1022.41 1022.53 1022.65 1022.65 1022.61 1022.65 1022.77 1022.97 1023.13 1023.37 1023.57 1023.69 1023.81 1023.89 1023.93 1023.93 1023.89 1023.81 1023.81 1023.77 1023.73 1023.65 1023.57 1023.45 1023.41 1023.25 1023.17 1023.17 1023.17 1023.09
1019.81 1020.13 1020.45 1020.73 1021.13 1021.53 1021.85 1022.09 1022.25 1022.45 1022.53 1022.61 1022.69 1022.81 1023.05 1023.05 1022.97 1022.97 1023.09 1023.25 1023.41 1023.69 1023.89 1024.05 1024.21 1024.33 1024.37 1024.33 1024.25 1024.13 1024.13 1024.09 1024.09 1024.01 1023.93 1023.89 1023.89 1023.89 1023.81 1023.81 1023.69 1023.53
1020.05 1020.29 1020.57 1020.85 1021.17 1021.61 1021.93 1022.17 1022.45 1022.65 1022.81 1022.93 1023.09 1023.25 1023.45 1023.49 1023.37 1023.37 1023.45 1023.61 1023.85 1024.05 1024.29 1024.37 1024.45 1024.53 1024.53 1024.49 1024.45 1024.41 1024.45 1024.45 1024.49 1024.49 1024.33 1024.25 1024.29 1024.41 1024.37 1024.37 1024.25 1024.05
1020.21 1020.53 1020.77 1021.09 1021.49 1021.85 1022.17 1022.49 1022.85 1023.05 1023.17 1023.29 1023.37 1023.49 1023.65 1023.69 1023.61 1023.65 1023.73 1023.93 1024.09 1024.29 1024.41 1024.49 1024.53 1024.57 1024.65 1024.65 1024.65 1024.69 1024.65 1024.73 1024.69 1024.77 1024.81 1024.77 1024.81 1024.85 1024.81 1024.81 1024.73 1024.49
1020.53 1020.77 1021.13 1021.53 1021.93 1022.25 1022.65 1023.05 1023.33 1023.49 1023.57 1023.61 1023.61 1023.61 1023.81 1023.85 1023.73 1023.77 1023.89 1024.05 1024.21 1024.33 1024.45 1024.53 1024.61 1024.73 1024.85 1024.93 1024.93 1024.97 1024.93 1024.89 1024.89 1024.97 1025.09 1025.17 1025.29 1025.13 1025.05 1025.01 1025.01 1024.93
1020.97 1021.25 1021.69 1022.09 1022.53 1022.93 1023.37 1023.65 1023.81 1023.85 1023.93 1023.85 1023.73 1023.77 1023.89 1023.81 1023.73 1023.81 1023.93 1024.09 1024.25 1024.45 1024.61 1024.73 1024.81 1024.89 1025.01 1025.09 1025.05 1025.13 1025.21 1025.17 1025.17 1025.17 1025.25 1025.37 1025.37 1025.29 1025.09 1025.05 1024.93 1024.81
1021.49 1021.89 1022.29 1022.65 1023.05 1023.49 1023.77 1023.93 1024.01 1024.05 1024.05 1023.89 1023.73 1023.97 1023.93 1023.77 1023.73 1023.81 1023.93 1024.13 1024.33 1024.53 1024.69 1024.81 1024.89 1024.97 1025.09 1025.09 1025.09 1025.17 1025.29 1025.37 1025.53 1025.53 1025.53 1025.53 1025.45 1025.37 1025.21 1025.05 1024.89 1024.69
1022.21 1022.61 1022.81 1023.05 1023.33 1023.65 1023.89 1024.05 1024.05 1024.05 1023.97 1023.73 1023.85 1024.09 1024.09 1023.89 1023.77 1023.81 1023.93 1024.13 1024.37 1024.61 1024.73 1024.81 1024.89 1024.97 1025.05 1025.09 1025.21 1025.33 1025.37 1025.45 1025.53 1025.65 1025.61 1025.53 1025.41 1025.33 1025.25 1025.13 1025.01 1024.89
1022.69 1022.93 1023.09 1023.29 1023.49 1023.73 1023.89 1024.01 1024.01 1024.01 1023.97 1023.89 1024.09 1024.29 1024.17 1024.13 1023.97 1023.89 1024.01 1024.17 1024.33 1024.57 1024.73 1024.85 1024.93 1025.01 1025.05 1025.17 1025.29 1025.37 1025.45 1025.37 1025.41 1025.41 1025.41 1025.37 1025.33 1025.25 1025.17 1025.13 1025.13 1025.05
1022.85 1023.01 1023.13 1023.33 1023.57 1023.85 1023.97 1024.01 1024.01 1024.05 1024.09 1024.13 1024.37 1024.41 1024.41 1024.29 1024.17 1024.09 1024.05 1024.17 1024.33 1024.53 1024.65 1024.81 1024.97 1025.05 1025.05 1025.13 1025.21 1025.33 1025.29 1025.21 1025.17 1025.13 1025.05 1025.05 1025.01 1024.97 1024.97 1024.97 1025.01 1025.01
1022.85 1023.01 1023.21 1023.41 1023.69 1023.93 1023.97 1024.01 1024.13 1024.17 1024.29 1024.45 1024.49 1024.49 1024.61 1024.41 1024.09 1024.09 1024.01 1024.13 1024.37 1024.53 1024.69 1024.81 1024.97 1025.05 1025.05 1025.05 1025.05 1025.05 1025.01 1024.97 1024.97 1024.93 1024.89 1024.89 1024.81 1024.73 1024.69 1024.77 1024.77 1024.77
1022.85 1023.01 1023.25 1023.53 1023.77 1023.93 1024.05 1024.17 1024.25 1024.37 1024.45 1024.45 1024.61 1024.57 1024.45 1024.25 1024.13 1023.93 1024.05 1024.01 1024.25 1024.37 1024.45 1024.61 1024.69 1024.85 1024.89 1024.85 1024.85 1024.89 1024.89 1024.89 1024.77 1024.73 1024.69 1024.65 1024.49 1024.33 1024.29 1024.37 1024.45 1024.49
1022.89 1023.09 1023.37 1023.61 1023.81 1023.93 1024.05 1024.21 1024.37 1024.49 1024.49 1024.57 1024.69 1024.53 1024.41 1024.17 1023.81 1023.69 1023.97 1024.05 1024.09 1024.17 1024.37 1024.57 1024.57 1024.61 1024.69 1024.77 1024.81 1024.81 1024.81 1024.73 1024.65 1024.57 1024.41 1024.25 1024.09 1023.97 1023.97 1024.05 1024.13 1024.17
1023.05 1023.33 1023.53 1023.65 1023.77 1023.85 1023.97 1024.13 1024.29 1024.41 1024.53 1024.57 1024.61 1024.65 1024.61 1024.33 1024.05 1023.85 1023.69 1023.69 1023.97 1024.17 1024.29 1024.53 1024.61 1024.57 1024.65 1024.73 1024.69 1024.57 1024.53 1024.41 1024.25 1024.13 1024.01 1023.85 1023.73 1023.65 1023.73 1023.81 1023.89 1023.89
1023.05 1023.25 1023.37 1023.53 1023.57 1023.57 1023.77 1024.05 1024.21 1024.33 1024.37 1024.41 1024.53 1024.69 1024.53 1024.25 1023.97 1023.97 1023.89 1023.93 1023.97 1024.17 1024.41 1024.57 1024.53 1024.61 1024.61 1024.53 1024.33 1024.13 1023.89 1023.77 1023.73 1023.69 1023.61 1023.57 1023.49 1023.41 1023.41 1023.41 1023.41 1023.45
1022.85 1022.97 1023.21 1023.25 1023.37 1023.53 1023.85 1024.09 1024.21 1024.37 1024.37 1024.45 1024.61 1024.61 1024.33 1024.13 1023.93 1023.77 1023.89 1024.09 1024.25 1024.41 1024.49 1024.61 1024.61 1024.53 1024.41 1024.09 1023.53 1023.21 1023.09 1023.13 1023.17 1023.21 1023.21 1023.25 1023.25 1023.25 1023.13 1023.05 1022.97 1022.93
1022.73 1023.01 1023.09 1023.17 1023.41 1023.61 1024.01 1024.33 1024.49 1024.53 1024.49 1024.61 1024.69 1024.57 1024.41 1024.21 1023.93 1023.93 1024.05 1024.21 1024.41 1024.49 1024.53 1024.45 1024.41 1024.25 1024.13 1023.65 1023.33 1023.05 1022.89 1022.85 1022.89 1022.93 1022.97 1022.97 1022.97 1022.93 1022.85 1022.77 1022.69 1022.69
1022.89 1022.97 1023.01 1023.25 1023.57 1023.97 1024.33 1024.53 1024.61 1024.65 1024.73 1024.69 1024.61 1024.57 1024.37 1024.01 1023.97 1023.97 1024.01 1024.17 1024.25 1024.25 1024.25 1024.21 1024.17 1024.05 1023.89 1023.49 1023.17 1022.93 1022.69 1022.61 1022.65 1022.69 1022.77 1022.81 1022.81 1022.81 1022.77 1022.69 1022.61 1022.53
1022.85 1022.93 1023.09 1023.49 1023.97 1024.33 1024.53 1024.57 1024.57 1024.57 1024.73 1024.77 1024.65 1024.37 1024.05 1023.89 1023.85 1023.85 1023.93 1024.01 1024.09 1024.13 1024.13 1024.09 1024.05 1023.89 1023.73 1023.33 1023.05 1022.81 1022.65 1022.57 1022.61 1022.69 1022.81 1022.81 1022.85 1022.81 1022.77 1022.65 1022.61 1022.57
1022.81 1023.13 1023.49 1023.97 1024.25 1024.41 1024.45 1024.41 1024.49 1024.65 1024.73 1024.57 1024.41 1024.09 1023.85 1023.73 1023.77 1023.89 1023.97 1024.09 1024.13 1024.13 1024.05 1023.93 1023.85 1023.65 1023.45 1023.25 1023.01 1022.85 1022.73 1022.69 1022.77 1022.85 1022.89 1022.89 1022.85 1022.85 1022.81 1022.73 1022.73 1022.65
1022.93 1023.41 1023.85 1024.09 1024.05 1024.09 1024.09 1024.29 1024.57 1024.61 1024.57 1024.33 1024.21 1023.97 1023.81 1023.81 1023.93 1023.97 1024.09 1024.09 1024.05 1023.93 1023.77 1023.65 1023.57 1023.49 1023.33 1023.29 1023.21 1023.09 1022.89 1022.89 1022.97 1022.97 1022.85 1022.77 1022.69 1022.65 1022.61 1022.57 1022.53 1022.45
1023.25 1023.49 1023.69 1023.77 1023.85 1023.89 1024.13 1024.37 1024.45 1024.45 1024.41 1024.13 1024.05 1023.81 1023.85 1023.93 1024.01 1024.05 1024.01 1023.89 1023.73 1023.61 1023.49 1023.53 1023.53 1023.49 1023.53 1023.49 1023.45 1023.21 1022.97 1023.05 1022.93 1022.85 1022.73 1022.65 1022.61 1022.53 1022.45 1022.37 1022.33 1022.21
1023.29 1023.37 1023.45 1023.73 1023.89 1023.89 1024.09 1024.33 1024.41 1024.33 1024.17 1024.01 1023.97 1023.89 1023.93 1023.97 1024.05 1023.97 1023.85 1023.65 1023.53 1023.53 1023.53 1023.61 1023.61 1023.65 1023.65 1023.61 1023.49 1023.21 1022.97 1022.93 1022.89 1022.81 1022.77 1022.65 1022.49 1022.37 1022.25 1022.17 1022.05 1021.89
1023.37 1023.45 1023.49 1023.61 1023.77 1024.01 1024.13 1024.09 1024.09 1024.05 1024.09 1024.05 1024.05 1024.05 1024.09 1024.01 1023.93 1023.73 1023.65 1023.61 1023.65 1023.69 1023.73 1023.73 1023.73 1023.73 1023.65 1023.57 1023.37 1023.13 1022.85 1022.81 1022.77 1022.73 1022.65 1022.53 1022.29 1022.09 1021.93 1021.81 1021.77 1021.65
1023.41 1023.41 1023.53 1023.53 1023.69 1023.93 1024.05 1024.05 1024.09 1024.13 1024.09 1024.09 1024.13 1024.05 1023.97 1023.85 1023.73 1023.73 1023.69 1023.73 1023.77 1023.81 1023.85 1023.85 1023.81 1023.73 1023.65 1023.49 1023.25 1023.05 1022.81 1022.61 1022.61 1022.57 1022.45 1022.13 1022.01 1021.81 1021.61 1021.45 1021.37 1021.37
Wind_Speed
6 5 6 6 6 5 5 5 4 4 4 3 5 5 5 5 5 6 6 6 7 7 7 8 7 7 6 6 6 5 6 5 6 6 5 6 6 6 6 7 6 5
8 7 6 7 7 6 5 5 5 5 4 5 5 5 5 5 6 6 6 6 7 7 7 7 8 8 7 6 6 6 5 6 6 5 6 7 6 6 6 6 5 5
8 8 7 8 7 8 7 5 5 5 5 5 6 5 5 5 6 6 6 6 6 7 7 6 6 6 5 5 5 5 6 6 7 6 5 5 5 5 5 5 4 5
8 8 8 8 7 7 6 6 5 5 4 5 5 4 4 4 5 6 6 6 6 6 5 5 5 5 6 6 5 5 5 5 5 5 4 4 5 4 5 4 4 4
8 7 7 7 7 7 6 6 5 5 6 5 5 4 4 4 5 6 5 5 5 5 5 5 5 6 6 6 6 5 5 4 5 6 4 4 4 4 4 4 5 5
8 7 7 7 6 6 6 5 4 4 4 5 5 4 4 4 5 5 5 5 5 5 5 5 5 5 6 5 4 4 4 4 4 5 4 4 4 3 3 4 4 4
8 8 8 7 7 6 6 4 4 3 3 3 3 4 3 4 5 5 5 6 6 5 5 4 4 4 3 3 3 4 3 3 4 4 4 3 3 4 4 4 4 4
9 7 6 5 6 5 5 4 3 3 3 3 5 3 2 3 5 5 6 6 5 4 4 4 3 3 3 3 4 4 3 2 3 3 2 2 3 3 4 4 4 4
7 6 6 6 6 4 5 4 2 3 2 6 5 3 2 4 6 6 6 5 5 4 4 3 3 3 3 3 3 2 2 2 1 2 2 3 3 3 4 4 5 5
6 5 6 6 6 4 5 3 3 3 2 5 3 2 3 2 4 5 5 5 5 4 4 3 3 2 2 1 1 1 1 1 1 1 1 2 3 4 4 4 5 5
6 5 6 5 4 3 4 3 3 3 2 3 2 2 2 3 2 3 4 4 4 3 2 2 1 1 1 1 1 1 1 1 1 1 1 2 2 2 3 3 3 5
5 4 4 4 4 4 4 3 2 3 2 1 2 3 2 1 3 2 3 3 2 1 1 0 0 0 1 1 2 2 2 2 2 2 3 2 3 2 2 3 3 3
4 4 4 6 5 4 3 3 2 2 2 3 2 2 2 2 2 3 1 2 1 1 1 0 1 0 1 2 2 2 2 3 3 3 3 3 3 3 3 3 3 4
4 6 6 6 5 4 3 3 3 2 2 2 2 1 1 1 1 2 1 1 0 0 0 0 1 1 1 1 2 3 3 4 4 4 4 3 3 3 4 3 4 4
7 5 5 5 4 4 3 3 2 1 1 1 1 1 0 1 1 1 1 2 1 1 1 0 1 3 2 3 3 4 4 5 5 4 4 4 4 4 4 4 4 4
6 6 5 4 4 3 3 1 1 0 0 0 0 0 0 0 1 1 1 0 1 2 1 1 3 3 4 6 7 6 5 5 4 4 4 5 5 6 5 5 6 5
5 5 4 3 2 2 1 1 1 0 1 0 0 0 0 1 1 1 1 0 0 1 2 3 3 3 5 9 11 12 7 4 4 4 4 5 5 6 7 6 4 5
4 4 3 2 2 2 1 1 1 1 1 1 0 1 0 1 1 1 0 0 1 1 2 3 3 5 8 10 12 13 11 6 4 4 4 4 5 5 5 4 4 4
5 4 3 3 2 2 2 2 3 2 1 1 1 1 1 1 1 1 0 0 0 1 3 3 3 5 8 12 12 13 14 11 5 4 5 4 4 4 4 5 5 6
4 4 4 4 3 3 3 3 2 2 1 1 1 0 1 1 1 1 1 1 1 2 3 3 4 4 8 12 12 13 14 12 6 5 4 5 4 5 5 5 6 6
4 5 5 4 3 4 3 2 2 1 0 0 0 1 2 2 2 2 1 1 2 2 3 3 4 6 10 11 12 13 14 12 6 5 4 4 4 4 5 5 5 6
5 6 5 4 4 2 3 2 1 1 0 0 1 1 1 1 1 1 2 2 3 3 3 4 4 7 10 11 13 13 14 7 5 6 6 5 5 4 5 6 5 6
6 6 5 3 2 3 2 1 1 0 1 0 2 2 2 2 2 2 2 3 4 4 4 5 4 6 9 11 12 14 11 5 5 5 5 5 5 5 5 5 5 5
4 6 6 4 3 3 2 1 1 0 0 1 2 2 2 3 2 3 3 3 4 4 4 5 5 5 9 11 13 14 12 6 5 5 5 5 6 5 5 5 6 8
5 5 5 4 4 3 2 2 1 0 0 0 1 1 1 1 2 3 3 3 3 4 6 6 6 6 8 11 13 14 11 5 5 5 6 6 6 6 4 4 4 6
3 5 4 4 5 3 2 2 1 0 0 1 1 1 2 3 3 3 4 4 3 4 4 4 6 6 5 11 13 13 14 8 4 4 6 7 5 6 6 4 4 4
Wind_Direction
92 91 99 95 94 96 100 101 96 97 88 83 86 81 77 76 70 66 61 56 50 48 40 36 32 31 26 27 25 31 34 29 27 18 14 19 17 15 14 6 2 352
92 94 97 98 98 92 88 90 95 93 86 76 78 79 69 69 60 63 58 56 51 47 40 37 34 31 27 26 19 30 30 28 26 13 16 23 14 10 10 358 354 338
97 95 95 96 99 95 91 85 85 81 80 75 72 66 66 60 64 60 62 57 56 49 43 40 39 33 28 26 20 31 31 25 24 7 15 20 13 17 0 356 346 342
88 90 95 91 89 92 88 83 75 72 74 70 65 69 74 68 71 70 67 63 63 60 53 48 45 38 34 30 30 34 32 30 24 11 13 10 15 11 1 359 346 349
90 82 75 79 75 76 76 78 75 72 80 84 81 76 76 73 74 71 70 67 68 63 57 52 45 42 35 32 31 36 28 23 19 20 17 17 6 9 358 2 355 354
74 74 71 76 76 79 77 78 81 88 97 90 88 84 84 83 80 79 72 72 66 63 56 51 46 43 42 35 38 38 29 28 16 17 17 12 359 359 1 357 353 352
87 82 83 78 81 78 88 91 93 93 83 102 103 77 86 84 83 78 77 79 73 65 61 53 51 45 39 45 46 41 25 24 17 15 13 4 353 345 2 355 353 341
86 79 89 95 99 101 102 105 100 96 112 97 81 78 67 88 84 80 85 80 73 72 68 64 60 53 45 47 42 34 26 27 19 5 5 353 352 339 344 348 341 339
96 99 107 105 105 103 107 108 101 96 88 86 82 87 59 77 85 88 85 81 78 69 66 57 51 51 39 47 40 36 13 357 16 12 349 342 345 339 339 339 349 342
101 107 107 110 102 106 107 109 100 84 83 77 78 87 85 66 79 89 87 82 78 67 60 55 43 36 30 48 47 29 341 325 322 323 317 317 325 329 332 346 344 338
111 109 111 104 103 110 119 111 104 102 89 105 109 93 92 101 84 90 92 85 82 77 57 47 46 20 2 339 334 306 298 292 303 305 290 279 272 287 312 327 332 331
116 118 120 117 123 128 127 127 127 123 124 139 135 125 128 116 116 107 113 111 117 117 125 132 155 85 311 294 305 312 316 310 298 294 285 270 267 260 287 296 298 306
129 137 129 135 146 144 139 139 144 159 158 162 183 152 149 144 137 113 122 119 121 132 115 173 341 338 300 303 299 293 279 288 291 284 283 278 263 274 271 271 272 268
140 123 137 142 143 144 150 155 161 168 166 177 178 170 162 152 129 108 124 104 80 83 38 85 317 318 292 266 264 266 264 261 253 255 261 266 265 270 276 265 266 262
128 138 139 141 147 149 150 159 165 166 169 179 190 167 174 155 124 108 63 31 27 22 344 318 255 271 254 239 252 273 245 241 246 248 249 256 262 262 259 265 259 253
146 144 147 141 146 141 135 148 163 179 120 95 55 73 135 138 107 95 100 83 348 336 315 296 277 267 256 258 257 242 245 239 242 240 248 255 260 266 259 242 246 247
135 141 127 142 121 99 103 146 142 131 67 30 19 346 68 113 93 79 91 148 200 236 271 267 264 264 270 287 299 306 305 291 269 263 248 252 254 253 262 257 247 236
141 131 128 118 107 133 144 159 149 138 137 159 175 122 153 122 103 135 168 198 204 228 249 262 265 266 285 304 305 305 304 295 278 268 262 252 251 253 256 262 267 270
134 137 134 121 136 141 154 155 153 150 152 171 143 198 171 100 101 88 334 259 242 280 282 277 279 281 297 309 309 308 306 303 290 274 270 265 264 267 272 280 283 285
136 135 120 122 134 147 155 155 142 134 166 192 186 171 70 47 43 48 359 341 310 302 289 288 291 285 300 312 313 312 309 306 299 302 297 290 285 278 282 284 286 284
131 128 126 136 159 160 145 125 124 160 148 229 72 21 32 27 6 13 329 330 308 297 296 298 299 305 316 317 317 315 310 308 308 303 293 286 277 273 271 272 271 271
125 135 143 152 158 149 120 126 125 169 63 244 37 18 41 56 355 4 329 316 308 317 323 320 317 318 319 319 314 311 309 311 309 294 283 268 265 260 261 262 259 255
147 144 151 169 153 134 143 157 151 177 15 77 34 12 20 11 354 338 320 323 327 338 334 320 318 310 304 306 307 307 311 303 289 287 286 284 274 268 261 261 258 258
149 149 145 159 145 144 162 151 160 152 107 22 44 4 356 346 320 326 325 338 335 329 327 312 306 297 294 294 300 305 308 305 295 288 284 279 279 268 262 262 263 257
146 144 151 150 141 150 154 141 135 109 294 63 43 56 320 307 331 338 335 337 326 304 297 293 291 290 289 289 293 301 304 296 291 285 286 278 276 279 264 254 266 276
154 141 145 141 144 155 149 148 162 132 72 57 357 15 350 348 344 346 329 314 310 297 285 274 281 283 276 278 288 293 299 297 284 286 284 287 281 280 293 275 253 260